Hourly Weather Ruse

Today, 21 October, Wednesday

Time Temperature Precipitation Wind Pressure Humidity
00:00 +11°C° 0 mm 1 mps 766 mmHg 67%
01:00 +11°C° 0 mm 1 mps 766 mmHg 70%
02:00 +11°C° 0 mm 1 mps 766 mmHg 72%
03:00 +10°C° 0 mm 1 mps 765 mmHg 74%
04:00 +10°C° 0 mm 1 mps 765 mmHg 75%
05:00 +9°C° 0 mm 0 mps 765 mmHg 77%
06:00 +9°C° 0 mm 0 mps 765 mmHg 74%
07:00 +10°C° 0 mm 0 mps 765 mmHg 72%
08:00 +10°C° 0 mm 0 mps 765 mmHg 70%
09:00 +13°C° 0 mm 1 mps 765 mmHg 63%
10:00 +15°C° 0 mm 1 mps 765 mmHg 55%
11:00 +17°C° 0 mm 2 mps 765 mmHg 48%
12:00 +19°C° 0 mm 1 mps 764 mmHg 44%
13:00 +20°C° 0 mm 1 mps 764 mmHg 40%
14:00 +21°C° 0 mm 1 mps 763 mmHg 36%
15:00 +20°C° 0 mm 1 mps 763 mmHg 38%
16:00 +19°C° 0 mm 1 mps 762 mmHg 41%
17:00 +18°C° 0 mm 1 mps 762 mmHg 44%
18:00 +16°C° 0 mm 1 mps 762 mmHg 47%
19:00 +14°C° 0 mm 0 mps 762 mmHg 49%
20:00 +13°C° 0 mm 0 mps 763 mmHg 52%
21:00 +13°C° 0 mm 0 mps 763 mmHg 54%
22:00 +12°C° 0 mm 0 mps 763 mmHg 56%
23:00 +12°C° 0 mm 0 mps 763 mmHg 58%

Tomorrow, 22 October, Thursday

Time Temperature Precipitation Wind Pressure Humidity
00:00 +11°C° 0 mm 0 mps 762 mmHg 60%
01:00 +11°C° 0 mm 0 mps 762 mmHg 62%
02:00 +11°C° 0 mm 0 mps 762 mmHg 63%
03:00 +10°C° 0 mm 0 mps 762 mmHg 65%
04:00 +10°C° 0 mm 0 mps 762 mmHg 66%
05:00 +11°C° 0 mm 1 mps 761 mmHg 67%
06:00 +11°C° 0 mm 1 mps 762 mmHg 66%
07:00 +12°C° 0 mm 1 mps 762 mmHg 65%
08:00 +12°C° 0 mm 1 mps 762 mmHg 64%
09:00 +14°C° 0 mm 1 mps 762 mmHg 58%
10:00 +16°C° 0 mm 1 mps 761 mmHg 52%
11:00 +18°C° 0 mm 2 mps 761 mmHg 46%
12:00 +19°C° 0 mm 2 mps 761 mmHg 42%
13:00 +21°C° 0 mm 1 mps 761 mmHg 39%
14:00 +22°C° 0 mm 1 mps 760 mmHg 36%
15:00 +21°C° 0 mm 1 mps 760 mmHg 38%
16:00 +20°C° 0 mm 1 mps 760 mmHg 41%
17:00 +19°C° 0 mm 1 mps 760 mmHg 43%
18:00 +18°C° 0 mm 1 mps 760 mmHg 46%
19:00 +15°C° 0 mm 0 mps 760 mmHg 48%
20:00 +14°C° 0 mm 0 mps 760 mmHg 51%
21:00 +15°C° 0 mm 1 mps 760 mmHg 53%
22:00 +14°C° 0 mm 1 mps 760 mmHg 55%
23:00 +14°C° 0 mm 1 mps 760 mmHg 57%

Day after tomorrow, 23 October, Friday

Time Temperature Precipitation Wind Pressure Humidity
00:00 +14°C° 0 mm 1 mps 760 mmHg 59%
01:00 +13°C° 0 mm 1 mps 760 mmHg 61%
02:00 +13°C° 0 mm 1 mps 759 mmHg 64%
03:00 +13°C° 0 mm 1 mps 759 mmHg 65%
04:00 +12°C° 0 mm 1 mps 759 mmHg 66%
05:00 +12°C° 0 mm 1 mps 759 mmHg 66%
06:00 +13°C° 0 mm 1 mps 759 mmHg 64%
07:00 +13°C° 0 mm 1 mps 759 mmHg 62%
08:00 +14°C° 0 mm 1 mps 759 mmHg 59%
09:00 +16°C° 0 mm 1 mps 759 mmHg 51%
10:00 +19°C° 0 mm 1 mps 759 mmHg 43%
11:00 +22°C° 0 mm 1 mps 759 mmHg 34%
12:00 +23°C° 0 mm 1 mps 758 mmHg 31%
13:00 +24°C° 0 mm 1 mps 758 mmHg 27%
14:00 +25°C° 0 mm 1 mps 757 mmHg 24%
15:00 +24°C° 0 mm 1 mps 757 mmHg 26%
16:00 +23°C° 0 mm 1 mps 757 mmHg 29%
17:00 +21°C° 0 mm 1 mps 756 mmHg 32%
18:00 +20°C° 0 mm 1 mps 756 mmHg 34%
19:00 +19°C° 0 mm 1 mps 756 mmHg 36%
20:00 +18°C° 0 mm 1 mps 756 mmHg 37%
21:00 +18°C° 0 mm 1 mps 756 mmHg 39%
22:00 +16°C° 0 mm 1 mps 756 mmHg 40%
23:00 +16°C° 0 mm 1 mps 756 mmHg 41%

24 October, Saturday

Time Temperature Precipitation Wind Pressure Humidity
00:00 +15°C° 0 mm 1 mps 756 mmHg 42%
01:00 +15°C° 0 mm 1 mps 756 mmHg 43%
02:00 +14°C° 0 mm 1 mps 756 mmHg 44%
03:00 +14°C° 0 mm 1 mps 756 mmHg 45%
04:00 +14°C° 0 mm 1 mps 755 mmHg 46%
05:00 +13°C° 0 mm 1 mps 755 mmHg 47%
06:00 +14°C° 0 mm 1 mps 755 mmHg 46%
07:00 +15°C° 0 mm 1 mps 755 mmHg 45%
08:00 +15°C° 0 mm 1 mps 755 mmHg 44%
09:00 +18°C° 0 mm 1 mps 755 mmHg 39%
10:00 +20°C° 0 mm 1 mps 755 mmHg 34%
11:00 +22°C° 0 mm 1 mps 755 mmHg 29%
12:00 +23°C° 0 mm 2 mps 755 mmHg 28%
13:00 +22°C° 0 mm 3 mps 754 mmHg 27%
14:00 +24°C° 0 mm 3 mps 754 mmHg 27%
15:00 +22°C° 0 mm 3 mps 755 mmHg 31%
16:00 +21°C° 0 mm 3 mps 755 mmHg 35%
17:00 +20°C° 0 mm 3 mps 755 mmHg 39%
18:00 +19°C° 0 mm 4 mps 755 mmHg 49%
19:00 +19°C° 0 mm 5 mps 756 mmHg 59%
20:00 +17°C° 0 mm 5 mps 756 mmHg 68%
21:00 +17°C° 0 mm 4 mps 756 mmHg 73%
22:00 +17°C° 0 mm 4 mps 756 mmHg 77%
23:00 +16°C° 0 mm 3 mps 756 mmHg 82%

25 October, Sunday

Time Temperature Precipitation Wind Pressure Humidity
00:00 +16°C° 0 mm 3 mps 756 mmHg 82%
01:00 +16°C° 0 mm 3 mps 756 mmHg 81%
02:00 +16°C° 0 mm 3 mps 756 mmHg 81%
03:00 +14°C° 0 mm 3 mps 757 mmHg 81%
04:00 +14°C° 0 mm 3 mps 757 mmHg 81%
05:00 +14°C° 0 mm 3 mps 757 mmHg 81%
06:00 +14°C° 0 mm 3 mps 757 mmHg 80%
07:00 +15°C° 0 mm 2 mps 757 mmHg 79%
08:00 +15°C° 0 mm 2 mps 758 mmHg 78%
09:00 +15°C° 0 mm 2 mps 758 mmHg 75%
10:00 +16°C° 0 mm 2 mps 758 mmHg 72%
11:00 +16°C° 0 mm 1 mps 758 mmHg 69%
12:00 +18°C° 0 mm 1 mps 758 mmHg 66%
13:00 +19°C° 0 mm 1 mps 757 mmHg 62%
14:00 +19°C° 0 mm 1 mps 757 mmHg 59%
15:00 +19°C° 0 mm 1 mps 757 mmHg 60%
16:00 +19°C° 0 mm 1 mps 757 mmHg 62%
17:00 +18°C° 0 mm 1 mps 757 mmHg 63%
18:00 +16°C° 0 mm 1 mps 757 mmHg 65%
19:00 +16°C° 0 mm 1 mps 757 mmHg 67%
20:00 +15°C° 0 mm 2 mps 757 mmHg 68%
21:00 +15°C° 0 mm 1 mps 758 mmHg 69%
22:00 +15°C° 0 mm 1 mps 758 mmHg 69%
23:00 +14°C° 0 mm 1 mps 758 mmHg 69%

26 October, Monday

Time Temperature Precipitation Wind Pressure Humidity
00:00 +14°C° 0 mm 1 mps 758 mmHg 69%
01:00 +14°C° 0 mm 1 mps 758 mmHg 69%
02:00 +14°C° 0 mm 1 mps 758 mmHg 69%
03:00 +14°C° 0 mm 2 mps 758 mmHg 68%
04:00 +14°C° 0 mm 2 mps 758 mmHg 67%
05:00 +14°C° 0 mm 2 mps 758 mmHg 66%
06:00 +13°C° 0 mm 3 mps 758 mmHg 64%
07:00 +13°C° 0 mm 3 mps 758 mmHg 62%
08:00 +13°C° 0 mm 4 mps 758 mmHg 60%
09:00 +14°C° 0 mm 4 mps 758 mmHg 55%
10:00 +15°C° 0 mm 4 mps 758 mmHg 50%
11:00 +16°C° 0 mm 5 mps 758 mmHg 44%
12:00 +17°C° 0 mm 5 mps 758 mmHg 42%
13:00 +17°C° 0 mm 5 mps 758 mmHg 41%
14:00 +19°C° 0 mm 5 mps 758 mmHg 39%
15:00 +18°C° 0 mm 4 mps 757 mmHg 41%
16:00 +17°C° 0 mm 4 mps 757 mmHg 43%
17:00 +17°C° 0 mm 4 mps 757 mmHg 44%
18:00 +15°C° 0 mm 4 mps 757 mmHg 45%
19:00 +14°C° 0 mm 4 mps 758 mmHg 46%
20:00 +13°C° 0 mm 4 mps 758 mmHg 47%
21:00 +12°C° 0 mm 4 mps 758 mmHg 47%
22:00 +11°C° 0 mm 3 mps 759 mmHg 48%
23:00 +11°C° 0 mm 3 mps 759 mmHg 48%

27 October, Tuesday

Time Temperature Precipitation Wind Pressure Humidity
00:00 +10°C° 0 mm 3 mps 759 mmHg 53%
01:00 +10°C° 0 mm 3 mps 759 mmHg 57%
02:00 +9°C° 0 mm 3 mps 759 mmHg 62%
03:00 +9°C° 0 mm 3 mps 759 mmHg 67%
04:00 +9°C° 0 mm 3 mps 759 mmHg 72%
05:00 +8°C° 0 mm 3 mps 759 mmHg 77%
06:00 +9°C° 0 mm 3 mps 760 mmHg 74%
07:00 +9°C° 0 mm 3 mps 760 mmHg 72%
08:00 +10°C° 0 mm 3 mps 760 mmHg 69%
09:00 +11°C° 0 mm 3 mps 760 mmHg 66%
10:00 +12°C° 0 mm 4 mps 760 mmHg 63%
11:00 +13°C° 0 mm 4 mps 760 mmHg 59%
12:00 +14°C° 0 mm 4 mps 760 mmHg 58%
13:00 +14°C° 0 mm 4 mps 760 mmHg 57%
14:00 +15°C° 0 mm 4 mps 760 mmHg 55%
15:00 +15°C° 0 mm 4 mps 760 mmHg 57%
16:00 +14°C° 0 mm 4 mps 760 mmHg 59%
17:00 +14°C° 0 mm 3 mps 761 mmHg 61%
18:00 +13°C° 0 mm 3 mps 761 mmHg 63%
19:00 +13°C° 0 mm 3 mps 761 mmHg 65%
20:00 +14°C° 0 mm 2 mps 761 mmHg 67%
21:00 +14°C° 0 mm 2 mps 762 mmHg 68%
22:00 +14°C° 0 mm 2 mps 762 mmHg 70%
23:00 +14°C° 0 mm 2 mps 762 mmHg 72%
Show more